WXM80 ListenWXM80 Stop

You find our weather info also at:

UK Metoffice

WeatherCloud

Weather Underground

Northeastern Weather Network

AWEKAS

Citizen Weather Observer Program (CWOP)

HAMweather, WeatherForYou, PWS Weather


Weather Underground History page Text

Daily Summary for January 10, 2018 Units:  Both    English   Metric
« Previous Day
Next Day »
Daily Weekly Monthly Yearly Custom
  High: Low: Average:
Temperature: TemperatureF °F /  -17.8 °C 22.5 °F /  -5.3 °C 34.2 °F /  1.2 °C
Dew Point: DewpointF °F /  -17.8 °C 18.1 °F /  -7.7 °C 27.4 °F /  -2.6 °C
Humidity: Humidity % 68 % 76 %
Wind Speed: WindSpeedMPH mph /  0 km/h - 1.2 mph /  1.9 km/h
Wind Gust: WindSpeedGustMPH mph /  0 km/h - -
Wind:- - ESE
Pressure: PressureIn in /  0 hPa 30.15 in /  1020.9 hPa -
Precipitation: 0.00 in /  0 mm    
Historical Graphs
 
 
Tabular Data for January 10, 2018
Time Temperature Dew Point Pressure Wind Wind Speed Wind Gust Humidity Rainfall Rate (Hourly)
TemperatureF °F /  -17.8 °C DewpointF °F /  -17.8 °C PressureIn in /  0 hPa Calm     Humidity % HourlyPrecipIn in /  0 mm
00:15 31.7 °F /  -0.2 °C 25.0 °F /  -3.9 °C 30.39 in /  1029 hPa NNE 1.2 mph /  1.9 km/h 3.5 mph /  5.6 km/h 76 % 0.00 in /  0 mm
00:41 31.5 °F /  -0.3 °C 24.5 °F /  -4.2 °C 30.15 in /  1020.9 hPa North 1.2 mph /  1.9 km/h 5.0 mph /  8 km/h 75 % 0.00 in /  0 mm
00:47 31.5 °F /  -0.3 °C 24.5 °F /  -4.2 °C 30.41 in /  1029.7 hPa North 1.1 mph /  1.8 km/h 3.5 mph /  5.6 km/h 75 % 0.00 in /  0 mm
01:04 31.4 °F /  -0.3 °C 24.4 °F /  -4.2 °C 30.41 in /  1029.7 hPa North 2.1 mph /  3.4 km/h 3.5 mph /  5.6 km/h 75 % 0.00 in /  0 mm
02:31 30.9 °F /  -0.6 °C 23.3 °F /  -4.8 °C 30.43 in /  1030.4 hPa NNE 1.9 mph /  3.1 km/h 5.0 mph /  8 km/h 73 % 0.00 in /  0 mm
02:38 30.9 °F /  -0.6 °C 23.3 °F /  -4.8 °C 30.43 in /  1030.4 hPa North 2.2 mph /  3.5 km/h 4.0 mph /  6.4 km/h 73 % 0.00 in /  0 mm
03:04 30.6 °F /  -0.8 °C 23.0 °F /  -5 °C 30.18 in /  1021.9 hPa NNE 0.4 mph /  0.6 km/h 4.0 mph /  6.4 km/h 73 % 0.00 in /  0 mm
03:25 30.1 °F /  -1.1 °C 22.5 °F /  -5.3 °C 30.44 in /  1030.7 hPa North 1.0 mph /  1.6 km/h 3.5 mph /  5.6 km/h 73 % 0.00 in /  0 mm
03:32 30.0 °F /  -1.1 °C 22.4 °F /  -5.3 °C 30.44 in /  1030.7 hPa North 0.2 mph /  0.3 km/h 3.5 mph /  5.6 km/h 73 % 0.00 in /  0 mm
03:40 29.9 °F /  -1.2 °C 22.3 °F /  -5.4 °C 30.44 in /  1030.7 hPa Calm   2.3 mph /  3.7 km/h 73 % 0.00 in /  0 mm
04:15 28.8 °F /  -1.8 °C 21.9 °F /  -5.6 °C 30.46 in /  1031.4 hPa Calm     75 % 0.00 in /  0 mm
04:46 27.6 °F /  -2.4 °C 21.0 °F /  -6.1 °C 30.46 in /  1031.4 hPa Calm     76 % 0.00 in /  0 mm
05:16 26.0 °F /  -3.3 °C 20.1 °F /  -6.6 °C 30.47 in /  1031.7 hPa Calm   1.0 mph /  1.6 km/h 78 % 0.00 in /  0 mm
06:32 23.0 °F /  -5 °C 18.3 °F /  -7.6 °C 30.48 in /  1032.1 hPa Calm     82 % 0.00 in /  0 mm
06:44 22.7 °F /  -5.2 °C 18.3 °F /  -7.6 °C 30.23 in /  1023.6 hPa Calm     83 % 0.00 in /  0 mm
06:50 22.6 °F /  -5.2 °C 18.2 °F /  -7.7 °C 30.48 in /  1032.1 hPa NW 0.9 mph /  1.4 km/h 1.2 mph /  1.9 km/h 83 % 0.00 in /  0 mm
06:52 22.5 °F /  -5.3 °C 18.1 °F /  -7.7 °C 30.48 in /  1032.1 hPa NW 0.5 mph /  0.8 km/h 1.2 mph /  1.9 km/h 83 % 0.00 in /  0 mm
08:02 22.6 °F /  -5.2 °C 19.6 °F /  -6.9 °C 30.24 in /  1023.9 hPa NW 0.8 mph /  1.3 km/h 2.3 mph /  3.7 km/h 88 % 0.00 in /  0 mm
08:44 26.6 °F /  -3 °C 23.8 °F /  -4.6 °C 30.25 in /  1024.3 hPa NNE 1.6 mph /  2.6 km/h 5.0 mph /  8 km/h 89 % 0.00 in /  0 mm
08:50 27.3 °F /  -2.6 °C 23.9 °F /  -4.5 °C 30.26 in /  1024.6 hPa NE 2.8 mph /  4.5 km/h 4.0 mph /  6.4 km/h 87 % 0.00 in /  0 mm
09:02 29.0 °F /  -1.7 °C 24.5 °F /  -4.2 °C 30.52 in /  1033.4 hPa ENE 3.8 mph /  6.1 km/h 5.0 mph /  8 km/h 83 % 0.00 in /  0 mm
09:19 31.3 °F /  -0.4 °C 24.9 °F /  -3.9 °C 30.52 in /  1033.4 hPa ENE 2.7 mph /  4.3 km/h 6.9 mph /  11.1 km/h 77 % 0.00 in /  0 mm
09:24 31.9 °F /  -0.1 °C 24.9 °F /  -3.9 °C 30.26 in /  1024.6 hPa ENE 2.7 mph /  4.3 km/h 4.6 mph /  7.4 km/h 75 % 0.00 in /  0 mm
09:27 32.1 °F /  0.1 °C 24.4 °F /  -4.2 °C 30.27 in /  1024.9 hPa ENE 2.4 mph /  3.9 km/h 4.6 mph /  7.4 km/h 73 % 0.00 in /  0 mm
09:29 32.4 °F /  0.2 °C 24.7 °F /  -4.1 °C 30.51 in /  1033.1 hPa ENE 1.4 mph /  2.3 km/h 3.0 mph /  4.8 km/h 73 % 0.00 in /  0 mm
09:34 32.8 °F /  0.4 °C 24.8 °F /  -4 °C 30.52 in /  1033.4 hPa ENE 2.1 mph /  3.4 km/h 4.6 mph /  7.4 km/h 72 % 0.00 in /  0 mm
09:44 33.4 °F /  0.8 °C 25.0 °F /  -3.9 °C 30.51 in /  1033.1 hPa ENE 2.8 mph /  4.5 km/h 3.5 mph /  5.6 km/h 71 % 0.00 in /  0 mm
09:49 33.8 °F /  1 °C 25.4 °F /  -3.7 °C 30.52 in /  1033.4 hPa NE 2.7 mph /  4.3 km/h 4.0 mph /  6.4 km/h 71 % 0.00 in /  0 mm
09:59 34.4 °F /  1.3 °C 25.3 °F /  -3.7 °C 30.52 in /  1033.4 hPa ENE 2.1 mph /  3.4 km/h 3.5 mph /  5.6 km/h 69 % 0.00 in /  0 mm
10:08 34.9 °F /  1.6 °C 25.8 °F /  -3.4 °C 30.51 in /  1033.1 hPa NE 2.0 mph /  3.2 km/h 4.0 mph /  6.4 km/h 69 % 0.00 in /  0 mm
10:13 35.1 °F /  1.7 °C 25.9 °F /  -3.4 °C 30.52 in /  1033.4 hPa ENE 4.3 mph /  6.9 km/h 7.0 mph /  11.3 km/h 69 % 0.00 in /  0 mm
10:19 35.2 °F /  1.8 °C 26.0 °F /  -3.3 °C 30.52 in /  1033.4 hPa ENE 4.0 mph /  6.4 km/h 5.0 mph /  8 km/h 69 % 0.00 in /  0 mm
10:24 35.3 °F /  1.8 °C 26.1 °F /  -3.3 °C 30.51 in /  1033.1 hPa NE 1.3 mph /  2.1 km/h 3.5 mph /  5.6 km/h 69 % 0.00 in /  0 mm
10:29 35.6 °F /  2 °C 26.1 °F /  -3.3 °C 30.51 in /  1033.1 hPa ENE 3.5 mph /  5.6 km/h 4.6 mph /  7.4 km/h 68 % 0.00 in /  0 mm
10:43 36.0 °F /  2.2 °C 26.5 °F /  -3.1 °C 30.26 in /  1024.6 hPa NE 0.1 mph /  0.2 km/h 3.5 mph /  5.6 km/h 68 % 0.00 in /  0 mm
10:56 36.1 °F /  2.3 °C 26.6 °F /  -3 °C 30.50 in /  1032.7 hPa ENE 1.3 mph /  2.1 km/h 3.5 mph /  5.6 km/h 68 % 0.00 in /  0 mm
11:01 36.1 °F /  2.3 °C 26.9 °F /  -2.8 °C 30.25 in /  1024.3 hPa NE 1.6 mph /  2.6 km/h 3.5 mph /  5.6 km/h 69 % 0.00 in /  0 mm
11:06 36.2 °F /  2.3 °C 27.0 °F /  -2.8 °C 30.25 in /  1024.3 hPa NNE 2.8 mph /  4.5 km/h 3.5 mph /  5.6 km/h 69 % 0.00 in /  0 mm
11:16 36.4 °F /  2.4 °C 27.2 °F /  -2.7 °C 30.50 in /  1032.7 hPa NNE 2.0 mph /  3.2 km/h 3.5 mph /  5.6 km/h 69 % 0.00 in /  0 mm
11:24 36.3 °F /  2.4 °C 26.7 °F /  -2.9 °C 30.25 in /  1024.3 hPa NW 1.1 mph /  1.8 km/h 3.5 mph /  5.6 km/h 68 % 0.00 in /  0 mm
11:34 36.0 °F /  2.2 °C 26.5 °F /  -3.1 °C 30.50 in /  1032.7 hPa North 2.1 mph /  3.4 km/h 3.5 mph /  5.6 km/h 68 % 0.00 in /  0 mm
11:39 35.8 °F /  2.1 °C 26.6 °F /  -3 °C 30.25 in /  1024.3 hPa North 2.5 mph /  4 km/h 3.5 mph /  5.6 km/h 69 % 0.00 in /  0 mm
11:44 35.8 °F /  2.1 °C 27.0 °F /  -2.8 °C 30.49 in /  1032.4 hPa NNE 3.0 mph /  4.8 km/h 3.5 mph /  5.6 km/h 70 % 0.00 in /  0 mm
11:49 35.8 °F /  2.1 °C 27.0 °F /  -2.8 °C 30.49 in /  1032.4 hPa North 2.5 mph /  4 km/h 3.5 mph /  5.6 km/h 70 % 0.00 in /  0 mm
11:54 35.7 °F /  2.1 °C 27.2 °F /  -2.7 °C 30.49 in /  1032.4 hPa North 2.0 mph /  3.2 km/h 3.5 mph /  5.6 km/h 71 % 0.00 in /  0 mm
11:59 35.6 °F /  2 °C 27.1 °F /  -2.7 °C 30.49 in /  1032.4 hPa North 0.7 mph /  1.1 km/h 3.5 mph /  5.6 km/h 71 % 0.00 in /  0 mm
12:04 35.6 °F /  2 °C 27.1 °F /  -2.7 °C 30.24 in /  1023.9 hPa North 1.7 mph /  2.7 km/h 3.5 mph /  5.6 km/h 71 % 0.00 in /  0 mm
12:14 35.5 °F /  1.9 °C 27.4 °F /  -2.6 °C 30.48 in /  1032.1 hPa North 1.2 mph /  1.9 km/h 3.5 mph /  5.6 km/h 72 % 0.00 in /  0 mm
12:20 35.6 °F /  2 °C 27.5 °F /  -2.5 °C 30.48 in /  1032.1 hPa NNE 2.4 mph /  3.9 km/h 3.5 mph /  5.6 km/h 72 % 0.00 in /  0 mm
12:25 35.8 °F /  2.1 °C 27.7 °F /  -2.4 °C 30.23 in /  1023.6 hPa NNE 3.2 mph /  5.1 km/h 4.6 mph /  7.4 km/h 72 % 0.00 in /  0 mm
12:31 36.0 °F /  2.2 °C 27.9 °F /  -2.3 °C 30.23 in /  1023.6 hPa North 1.0 mph /  1.6 km/h 4.0 mph /  6.4 km/h 72 % 0.00 in /  0 mm
12:37 36.7 °F /  2.6 °C 28.5 °F /  -1.9 °C 30.22 in /  1023.2 hPa NNE 2.4 mph /  3.9 km/h 4.6 mph /  7.4 km/h 72 % 0.00 in /  0 mm
12:44 37.1 °F /  2.8 °C 28.2 °F /  -2.1 °C 30.47 in /  1031.7 hPa North 2.0 mph /  3.2 km/h 3.5 mph /  5.6 km/h 70 % 0.00 in /  0 mm
12:49 37.3 °F /  2.9 °C 28.4 °F /  -2 °C 30.22 in /  1023.2 hPa North 3.4 mph /  5.5 km/h 5.8 mph /  9.3 km/h 70 % 0.00 in /  0 mm
12:58 37.4 °F /  3 °C 28.2 °F /  -2.1 °C 30.47 in /  1031.7 hPa NNE 2.0 mph /  3.2 km/h 3.5 mph /  5.6 km/h 69 % 0.00 in /  0 mm
13:10 37.7 °F /  3.2 °C 28.4 °F /  -2 °C 30.46 in /  1031.4 hPa NNE 2.1 mph /  3.4 km/h 3.5 mph /  5.6 km/h 69 % 0.00 in /  0 mm
13:19 37.9 °F /  3.3 °C 28.6 °F /  -1.9 °C 30.46 in /  1031.4 hPa NNE 3.3 mph /  5.3 km/h 4.0 mph /  6.4 km/h 69 % 0.00 in /  0 mm
13:24 37.9 °F /  3.3 °C 28.3 °F /  -2.1 °C 30.46 in /  1031.4 hPa NNE 2.5 mph /  4 km/h 4.6 mph /  7.4 km/h 68 % 0.00 in /  0 mm
13:33 37.8 °F /  3.2 °C 28.2 °F /  -2.1 °C 30.21 in /  1022.9 hPa North 2.5 mph /  4 km/h 3.5 mph /  5.6 km/h 68 % 0.00 in /  0 mm
13:39 37.8 °F /  3.2 °C 28.5 °F /  -1.9 °C 30.45 in /  1031 hPa NNE 2.0 mph /  3.2 km/h 4.6 mph /  7.4 km/h 69 % 0.00 in /  0 mm
13:48 37.9 °F /  3.3 °C 28.3 °F /  -2.1 °C 30.45 in /  1031 hPa ENE 2.0 mph /  3.2 km/h 4.6 mph /  7.4 km/h 68 % 0.00 in /  0 mm
13:56 37.9 °F /  3.3 °C 28.3 °F /  -2.1 °C 30.45 in /  1031 hPa NNE 4.3 mph /  6.9 km/h 6.0 mph /  9.7 km/h 68 % 0.00 in /  0 mm
14:02 37.7 °F /  3.2 °C 28.4 °F /  -2 °C 30.45 in /  1031 hPa NE 2.0 mph /  3.2 km/h 2.3 mph /  3.7 km/h 69 % 0.00 in /  0 mm
14:11 37.3 °F /  2.9 °C 28.1 °F /  -2.2 °C 30.44 in /  1030.7 hPa NNE 2.8 mph /  4.5 km/h 4.0 mph /  6.4 km/h 69 % 0.00 in /  0 mm
14:19 37.2 °F /  2.9 °C 28.0 °F /  -2.2 °C 30.20 in /  1022.6 hPa NNE 0.3 mph /  0.5 km/h 1.2 mph /  1.9 km/h 69 % 0.00 in /  0 mm
14:25 37.1 °F /  2.8 °C 27.9 °F /  -2.3 °C 30.20 in /  1022.6 hPa Calm   2.3 mph /  3.7 km/h 69 % 0.00 in /  0 mm
14:35 36.7 °F /  2.6 °C 27.1 °F /  -2.7 °C 30.46 in /  1031.4 hPa NNE 0.5 mph /  0.8 km/h 2.3 mph /  3.7 km/h 68 % 0.00 in /  0 mm
14:45 36.3 °F /  2.4 °C 27.1 °F /  -2.7 °C 30.46 in /  1031.4 hPa NNE 1.6 mph /  2.6 km/h 3.5 mph /  5.6 km/h 69 % 0.00 in /  0 mm
14:52 36.0 °F /  2.2 °C 27.5 °F /  -2.5 °C 30.46 in /  1031.4 hPa NNE 0.4 mph /  0.6 km/h 2.3 mph /  3.7 km/h 71 % 0.00 in /  0 mm
14:58 35.7 °F /  2.1 °C 27.2 °F /  -2.7 °C 30.46 in /  1031.4 hPa NE 0.3 mph /  0.5 km/h 2.3 mph /  3.7 km/h 71 % 0.00 in /  0 mm
15:03 35.6 °F /  2 °C 27.1 °F /  -2.7 °C 30.46 in /  1031.4 hPa NNE 0.1 mph /  0.2 km/h 1.0 mph /  1.6 km/h 71 % 0.00 in /  0 mm
15:08 35.3 °F /  1.8 °C 26.8 °F /  -2.9 °C 30.46 in /  1031.4 hPa NNE 0.2 mph /  0.3 km/h 1.2 mph /  1.9 km/h 71 % 0.00 in /  0 mm
15:14 35.2 °F /  1.8 °C 26.7 °F /  -2.9 °C 30.20 in /  1022.6 hPa Calm     71 % 0.00 in /  0 mm
15:23 35.0 °F /  1.7 °C 26.2 °F /  -3.2 °C 30.46 in /  1031.4 hPa Calm   1.2 mph /  1.9 km/h 70 % 0.00 in /  0 mm
15:28 35.0 °F /  1.7 °C 26.5 °F /  -3.1 °C 30.46 in /  1031.4 hPa NE 0.3 mph /  0.5 km/h 2.3 mph /  3.7 km/h 71 % 0.00 in /  0 mm
15:33 34.9 °F /  1.6 °C 26.4 °F /  -3.1 °C 30.21 in /  1022.9 hPa NE 0.5 mph /  0.8 km/h 1.2 mph /  1.9 km/h 71 % 0.00 in /  0 mm
15:42 34.8 °F /  1.6 °C 26.4 °F /  -3.1 °C 30.46 in /  1031.4 hPa NE 1.3 mph /  2.1 km/h 2.3 mph /  3.7 km/h 71 % 0.00 in /  0 mm
15:54 34.6 °F /  1.4 °C 27.2 °F /  -2.7 °C 30.46 in /  1031.4 hPa Calm     74 % 0.00 in /  0 mm
15:59 34.6 °F /  1.4 °C 27.2 °F /  -2.7 °C 30.46 in /  1031.4 hPa NE 0.3 mph /  0.5 km/h 2.3 mph /  3.7 km/h 74 % 0.00 in /  0 mm
16:06 34.6 °F /  1.4 °C 27.2 °F /  -2.7 °C 30.20 in /  1022.6 hPa NE 0.8 mph /  1.3 km/h 2.3 mph /  3.7 km/h 74 % 0.00 in /  0 mm
16:15 34.4 °F /  1.3 °C 27.3 °F /  -2.6 °C 30.46 in /  1031.4 hPa Calm     75 % 0.00 in /  0 mm
16:22 34.2 °F /  1.2 °C 27.1 °F /  -2.7 °C 30.45 in /  1031 hPa Calm     75 % 0.00 in /  0 mm
16:27 34.2 °F /  1.2 °C 27.4 °F /  -2.6 °C 30.19 in /  1022.2 hPa ESE 1.2 mph /  1.9 km/h 2.3 mph /  3.7 km/h 76 % 0.00 in /  0 mm
16:29 34.1 °F /  1.2 °C 27.3 °F /  -2.6 °C 30.19 in /  1022.2 hPa Calm   3.5 mph /  5.6 km/h 76 % 0.00 in /  0 mm
16:37 33.9 °F /  1.1 °C 27.1 °F /  -2.7 °C 30.45 in /  1031 hPa South 1.7 mph /  2.7 km/h 4.6 mph /  7.4 km/h 76 % 0.00 in /  0 mm
16:42 33.8 °F /  1 °C 27.4 °F /  -2.6 °C 30.44 in /  1030.7 hPa SSW 0.6 mph /  1 km/h 3.5 mph /  5.6 km/h 77 % 0.00 in /  0 mm
16:48 33.8 °F /  1 °C 27.7 °F /  -2.4 °C 30.20 in /  1022.6 hPa South 0.1 mph /  0.2 km/h 1.0 mph /  1.6 km/h 78 % 0.00 in /  0 mm
17:10 34.0 °F /  1.1 °C 28.2 °F /  -2.1 °C 30.46 in /  1031.4 hPa Calm     79 % 0.00 in /  0 mm
17:21 34.4 °F /  1.3 °C 28.2 °F /  -2.1 °C 30.21 in /  1022.9 hPa South 2.0 mph /  3.2 km/h 5.0 mph /  8 km/h 78 % 0.00 in /  0 mm
17:28 34.8 °F /  1.6 °C 28.3 °F /  -2.1 °C 30.46 in /  1031.4 hPa South 0.5 mph /  0.8 km/h 2.3 mph /  3.7 km/h 77 % 0.00 in /  0 mm
17:33 35.0 °F /  1.7 °C 28.5 °F /  -1.9 °C 30.46 in /  1031.4 hPa SSW 1.8 mph /  2.9 km/h 7.0 mph /  11.3 km/h 77 % 0.00 in /  0 mm
17:42 35.2 °F /  1.8 °C 28.4 °F /  -2 °C 30.46 in /  1031.4 hPa South 1.7 mph /  2.7 km/h 3.5 mph /  5.6 km/h 76 % 0.00 in /  0 mm
17:47 35.3 °F /  1.8 °C 28.5 °F /  -1.9 °C 30.46 in /  1031.4 hPa South 0.2 mph /  0.3 km/h 2.3 mph /  3.7 km/h 76 % 0.00 in /  0 mm
18:01 35.4 °F /  1.9 °C 28.6 °F /  -1.9 °C 30.21 in /  1022.9 hPa South 0.9 mph /  1.4 km/h 3.5 mph /  5.6 km/h 76 % 0.00 in /  0 mm
18:06 35.4 °F /  1.9 °C 28.3 °F /  -2.1 °C 30.46 in /  1031.4 hPa SSE 0.2 mph /  0.3 km/h 5.8 mph /  9.3 km/h 75 % 0.00 in /  0 mm
18:12 35.4 °F /  1.9 °C 28.3 °F /  -2.1 °C 30.46 in /  1031.4 hPa Calm   1.2 mph /  1.9 km/h 75 % 0.00 in /  0 mm
18:18 35.3 °F /  1.8 °C 28.2 °F /  -2.1 °C 30.20 in /  1022.6 hPa South 0.9 mph /  1.4 km/h 3.5 mph /  5.6 km/h 75 % 0.00 in /  0 mm
18:25 35.0 °F /  1.7 °C 27.9 °F /  -2.3 °C 30.46 in /  1031.4 hPa South 2.3 mph /  3.7 km/h 3.5 mph /  5.6 km/h 75 % 0.00 in /  0 mm
18:34 34.7 °F /  1.5 °C 27.9 °F /  -2.3 °C 30.46 in /  1031.4 hPa South 0.8 mph /  1.3 km/h 3.5 mph /  5.6 km/h 76 % 0.00 in /  0 mm
18:39 34.6 °F /  1.4 °C 27.8 °F /  -2.3 °C 30.46 in /  1031.4 hPa Calm   2.3 mph /  3.7 km/h 76 % 0.00 in /  0 mm
18:49 34.4 °F /  1.3 °C 27.9 °F /  -2.3 °C 30.46 in /  1031.4 hPa Calm     77 % 0.00 in /  0 mm
18:56 34.2 °F /  1.2 °C 27.7 °F /  -2.4 °C 30.46 in /  1031.4 hPa SSE 2.0 mph /  3.2 km/h 3.5 mph /  5.6 km/h 77 % 0.00 in /  0 mm
19:12 34.1 °F /  1.2 °C 28.0 °F /  -2.2 °C 30.21 in /  1022.9 hPa Calm     78 % 0.00 in /  0 mm
19:25 34.0 °F /  1.1 °C 28.2 °F /  -2.1 °C 30.46 in /  1031.4 hPa Calm   1.2 mph /  1.9 km/h 79 % 0.00 in /  0 mm
19:30 34.0 °F /  1.1 °C 28.2 °F /  -2.1 °C 30.46 in /  1031.4 hPa SSE 0.2 mph /  0.3 km/h 2.3 mph /  3.7 km/h 79 % 0.00 in /  0 mm
19:36 34.0 °F /  1.1 °C 28.2 °F /  -2.1 °C 30.47 in /  1031.7 hPa SSE 0.5 mph /  0.8 km/h 1.2 mph /  1.9 km/h 79 % 0.00 in /  0 mm
19:42 34.1 °F /  1.2 °C 28.3 °F /  -2.1 °C 30.47 in /  1031.7 hPa SSE 1.6 mph /  2.6 km/h 2.3 mph /  3.7 km/h 79 % 0.00 in /  0 mm
19:47 34.1 °F /  1.2 °C 28.6 °F /  -1.9 °C 30.47 in /  1031.7 hPa Calm   2.3 mph /  3.7 km/h 80 % 0.00 in /  0 mm
19:53 34.1 °F /  1.2 °C 28.6 °F /  -1.9 °C 30.47 in /  1031.7 hPa Calm   1.2 mph /  1.9 km/h 80 % 0.00 in /  0 mm
20:01 34.2 °F /  1.2 °C 28.7 °F /  -1.8 °C 30.48 in /  1032.1 hPa Calm   1.2 mph /  1.9 km/h 80 % 0.00 in /  0 mm
20:07 34.3 °F /  1.3 °C 29.1 °F /  -1.6 °C 30.22 in /  1023.2 hPa Calm   1.2 mph /  1.9 km/h 81 % 0.00 in /  0 mm
20:08 34.4 °F /  1.3 °C 29.2 °F /  -1.6 °C 30.22 in /  1023.2 hPa SSE 1.1 mph /  1.8 km/h 2.3 mph /  3.7 km/h 81 % 0.00 in /  0 mm
20:10 34.4 °F /  1.3 °C 29.2 °F /  -1.6 °C 30.22 in /  1023.2 hPa SSE 1.5 mph /  2.4 km/h 2.3 mph /  3.7 km/h 81 % 0.00 in /  0 mm
20:11 34.4 °F /  1.3 °C 29.2 °F /  -1.6 °C 30.22 in /  1023.2 hPa SSE 2.0 mph /  3.2 km/h 4.0 mph /  6.4 km/h 81 % 0.00 in /  0 mm
20:16 34.6 °F /  1.4 °C 29.4 °F /  -1.4 °C 30.46 in /  1031.4 hPa SSE 0.9 mph /  1.4 km/h 2.3 mph /  3.7 km/h 81 % 0.00 in /  0 mm
20:23 34.7 °F /  1.5 °C 29.5 °F /  -1.4 °C 30.20 in /  1022.6 hPa SE 1.2 mph /  1.9 km/h 3.5 mph /  5.6 km/h 81 % 0.00 in /  0 mm
20:46 35.2 °F /  1.8 °C 30.3 °F /  -0.9 °C 30.44 in /  1030.7 hPa South 1.0 mph /  1.6 km/h 5.0 mph /  8 km/h 82 % 0.00 in /  0 mm
20:51 35.3 °F /  1.8 °C 30.4 °F /  -0.9 °C 30.44 in /  1030.7 hPa Calm   2.0 mph /  3.2 km/h 82 % 0.00 in /  0 mm
21:00 35.4 °F /  1.9 °C 30.5 °F /  -0.8 °C 30.44 in /  1030.7 hPa South 1.5 mph /  2.4 km/h 3.5 mph /  5.6 km/h 82 % 0.00 in /  0 mm
21:24 35.6 °F /  2 °C 31.2 °F /  -0.4 °C 30.19 in /  1022.2 hPa South 0.9 mph /  1.4 km/h 2.3 mph /  3.7 km/h 84 % 0.00 in /  0 mm
21:29 35.6 °F /  2 °C 31.2 °F /  -0.4 °C 30.19 in /  1022.2 hPa South 1.0 mph /  1.6 km/h 3.5 mph /  5.6 km/h 84 % 0.00 in /  0 mm
21:35 35.7 °F /  2.1 °C 31.6 °F /  -0.2 °C 30.44 in /  1030.7 hPa South 1.7 mph /  2.7 km/h 3.5 mph /  5.6 km/h 85 % 0.00 in /  0 mm
21:51 35.9 °F /  2.2 °C 31.8 °F /  -0.1 °C 30.44 in /  1030.7 hPa SSW 2.0 mph /  3.2 km/h 3.5 mph /  5.6 km/h 85 % 0.00 in /  0 mm
21:59 36.1 °F /  2.3 °C 32.3 °F /  0.2 °C 30.44 in /  1030.7 hPa Calm   1.2 mph /  1.9 km/h 86 % 0.00 in /  0 mm
22:08 36.2 °F /  2.3 °C 32.4 °F /  0.2 °C 30.44 in /  1030.7 hPa Calm   1.2 mph /  1.9 km/h 86 % 0.00 in /  0 mm
22:25 36.5 °F /  2.5 °C 33.0 °F /  0.6 °C 30.18 in /  1021.9 hPa Calm   1.2 mph /  1.9 km/h 87 % 0.00 in /  0 mm
22:33 36.8 °F /  2.7 °C 33.6 °F /  0.9 °C 30.43 in /  1030.4 hPa South 1.8 mph /  2.9 km/h 3.5 mph /  5.6 km/h 88 % 0.00 in /  0 mm
22:39 37.0 °F /  2.8 °C 33.8 °F /  1 °C 30.43 in /  1030.4 hPa South 1.4 mph /  2.3 km/h 3.5 mph /  5.6 km/h 88 % 0.00 in /  0 mm
22:44 37.1 °F /  2.8 °C 33.9 °F /  1.1 °C 30.43 in /  1030.4 hPa SW 0.3 mph /  0.5 km/h 2.3 mph /  3.7 km/h 88 % 0.00 in /  0 mm
22:49 37.2 °F /  2.9 °C 34.0 °F /  1.1 °C 30.43 in /  1030.4 hPa Calm   1.2 mph /  1.9 km/h 88 % 0.00 in /  0 mm
22:57 37.4 °F /  3 °C 34.2 °F /  1.2 °C 30.43 in /  1030.4 hPa Calm     88 % 0.00 in /  0 mm
23:03 37.6 °F /  3.1 °C 34.4 °F /  1.3 °C 30.17 in /  1021.6 hPa Calm     88 % 0.00 in /  0 mm
23:08 37.7 °F /  3.2 °C 34.5 °F /  1.4 °C 30.43 in /  1030.4 hPa Calm     88 % 0.00 in /  0 mm
23:15 37.8 °F /  3.2 °C 34.6 °F /  1.4 °C 30.17 in /  1021.6 hPa Calm     88 % 0.00 in /  0 mm
23:25 37.8 °F /  3.2 °C 34.3 °F /  1.3 °C 30.42 in /  1030 hPa Calm     87 % 0.00 in /  0 mm
23:30 37.7 °F /  3.2 °C 34.2 °F /  1.2 °C 30.17 in /  1021.6 hPa Calm     87 % 0.00 in /  0 mm
23:35 37.7 °F /  3.2 °C 34.2 °F /  1.2 °C 30.41 in /  1029.7 hPa Calm     87 % 0.00 in /  0 mm
23:42 37.6 °F /  3.1 °C 34.1 °F /  1.2 °C 30.42 in /  1030 hPa Calm     87 % 0.00 in /  0 mm
23:47 37.5 °F /  3.1 °C 34.0 °F /  1.1 °C 30.41 in /  1029.7 hPa Calm     87 % 0.00 in /  0 mm
23:57 37.4 °F /  3 °C 34.2 °F /  1.2 °C 30.16 in /  1021.2 hPa SW 0.8 mph /  1.3 km/h 2.3 mph /  3.7 km/h 88 % 0.00 in /  0 mm
Crab Meadow Weather
Compliments of Weather Underground - 2 mb

Script developed by  Jim McMurry - jmcmurry@mwt.net Adapted for the template by  Wim van der Kuil - Leuven-Template.eu

Recycling: Americans throw away 25,000,000,000 Styrofoam coffee cups every year.